Weather History for NW Arkansas Airport, AR

Change the Weather History Date:

Tuesday, May 14, 2013

  Actual Average Record
Temperature  
Mean Temperature 72 °F -  
Max Temperature 84 °F - - ()
Min Temperature 61 °F - - ()
Cooling Degree Days 8    
Growing Degree Days 22 (Base 50)    
Moisture  
Dew Point 52 °F    
Average Humidity 51    
Maximum Humidity 75    
Minimum Humidity 29    
Precipitation  
Precipitation 0.00 in - - ()
Sea Level Pressure  
Sea Level Pressure 30.00 in    
Wind  
Wind Speed 9 mph (SSW)    
Max Wind Speed 16 mph    
Max Gust Speed 22 mph    
Visibility 10 miles    
Events      
T = Trace of Precipitation, MM = Missing Value Source: NWS Daily Summary

Daily Weather History Graph

Daily Weather History Graph

Search for Another Location

Airport:

Trip Planner

Search our weather history database for the weather conditions in past years. The results will help you decide how hot, cold, wet, or windy it might be!

Date:

Astronomy

May. 14, 2013 Rise Set
Actual Time 6:11 AM CDT 8:16 PM CDT
Civil Twilight 5:42 AM CDT 8:44 PM CDT
Nautical Twilight 5:07 AM CDT 9:19 PM CDT
Astronomical Twilight 4:30 AM CDT 9:57 PM CDT
Moon 9:51 AM CDT (5/14) No Moon Set
Length of Visible Light 15h 02m
Length of Day
14h 04m
Waxing Crescent, 19% of the Moon is Illuminated
May 14
Waxing Crescent
May 17
First Quarter
May 24
Full
May 31
Last Quarter
Jun 8
New

Hourly Weather History & Observations

Time (CDT) Temp. Heat Index Dew Point Humidity Pressure Visibility Wind Dir Wind Speed Gust Speed Precip Events Conditions
12:53 AM 61.0 °F - 53.1 °F 75% 30.04 in 10.0 mi South 5.8 mph - N/A   Clear
1:53 AM 62.1 °F - 52.0 °F 70% 30.02 in 10.0 mi SSW 6.9 mph - N/A   Clear
2:53 AM 64.0 °F - 50.0 °F 60% 30.01 in 10.0 mi SSW 9.2 mph - N/A   Clear
3:53 AM 63.0 °F - 48.9 °F 60% 30.01 in 10.0 mi SSW 8.1 mph - N/A   Clear
4:53 AM 62.1 °F - 48.0 °F 60% 30.01 in 10.0 mi SSW 6.9 mph - N/A   Clear
5:53 AM 61.0 °F - 48.0 °F 62% 30.02 in 10.0 mi SSW 6.9 mph - N/A   Clear
6:53 AM 61.0 °F - 48.9 °F 64% 30.04 in 10.0 mi SSW 6.9 mph - N/A   Clear
7:53 AM 64.9 °F - 50.0 °F 58% 30.05 in 10.0 mi SSW 9.2 mph - N/A   Clear
8:53 AM 69.1 °F - 52.0 °F 54% 30.06 in 10.0 mi SW 13.8 mph 20.7 mph N/A   Clear
9:53 AM 73.0 °F - 53.1 °F 49% 30.05 in 10.0 mi WSW 15.0 mph 20.7 mph N/A   Clear
10:53 AM 75.0 °F - 54.0 °F 48% 30.06 in 10.0 mi SW 16.1 mph 21.9 mph N/A   Clear
11:53 AM 79.0 °F - 55.9 °F 45% 30.05 in 10.0 mi SW 12.7 mph 18.4 mph N/A   Clear
12:53 PM 82.0 °F 81.4 °F 55.0 °F 39% 30.03 in 10.0 mi SW 15.0 mph 20.7 mph N/A   Clear
1:53 PM 82.9 °F 82.6 °F 57.9 °F 42% 30.01 in 10.0 mi SSW 12.7 mph - N/A   Clear
2:53 PM 84.9 °F 83.6 °F 55.0 °F 36% 29.99 in 10.0 mi SSW 11.5 mph - N/A   Clear
3:53 PM 84.9 °F - 48.9 °F 29% 29.98 in 10.0 mi SW 13.8 mph 20.7 mph N/A   Clear
4:53 PM 84.0 °F 82.5 °F 53.1 °F 34% 29.96 in 10.0 mi SW 11.5 mph 20.7 mph N/A   Clear
5:53 PM 82.0 °F - 50.0 °F 33% 29.96 in 10.0 mi SSW 12.7 mph 20.7 mph N/A   Clear
6:53 PM 80.1 °F 79.9 °F 53.1 °F 39% 29.95 in 10.0 mi SSW 10.4 mph 18.4 mph N/A   Clear
7:53 PM 75.0 °F - 52.0 °F 44% 29.95 in 10.0 mi SSW 5.8 mph - N/A   Clear
8:53 PM 71.1 °F - 53.1 °F 53% 29.95 in 10.0 mi South 5.8 mph - N/A   Clear
9:53 PM 69.1 °F - 52.0 °F 54% 29.96 in 10.0 mi SSW 6.9 mph - N/A   Clear
10:53 PM 68.0 °F - 51.1 °F 55% 29.97 in 10.0 mi SSW 8.1 mph - N/A   Clear
11:53 PM 66.9 °F - 48.9 °F 52% 29.98 in 10.0 mi SSW 8.1 mph - N/A   Clear